| time (UTC) | temp F | wind direction | speed MPH | gust MPH | rain 1hr in | rain 24hr in | rain mn in | humidity % | barometer mb |
| 20260905144005 | 83 | 61 | 13.0 | 0.0 | 0.00 | 0.00 | 0.00 | 70 | 1011.3 |
| 20260905143504 | 83 | 164 | 9.0 | 0.0 | 0.00 | 0.00 | 0.00 | 71 | 1011.3 |
| 20260905143005 | 83 | 114 | 9.0 | 0.0 | 0.00 | 0.00 | 0.00 | 72 | 1011.3 |
| 20260905142505 | 82 | 128 | 0.0 | 0.0 | 0.00 | 0.00 | 0.00 | 73 | 1011.3 |
| 20260905142213 | 83 | 199 | 13.0 | 0.0 | 0.00 | 0.00 | 0.00 | 73 | 1011.3 |
| 20260905141712 | 82 | 57 | 9.0 | 0.0 | 0.00 | 0.00 | 0.00 | 74 | 1011.3 |
| 20260905141005 | 82 | 137 | 9.0 | 0.0 | 0.00 | 0.00 | 0.00 | 76 | 1011.3 |
| 20260905140505 | 82 | 76 | 9.0 | 0.0 | 0.00 | 0.00 | 0.00 | 76 | 1011.0 |
| 20260905140005 | 82 | 129 | 9.0 | 0.0 | 0.00 | 0.00 | 0.00 | 77 | 1011.3 |
| 20260905135505 | 81 | 130 | 4.0 | 0.0 | 0.00 | 0.00 | 0.00 | 77 | 1011.0 |
| 20260905135004 | 81 | 107 | 9.0 | 0.0 | 0.00 | 0.00 | 0.00 | 79 | 1010.6 |
| 20260905134712 | 80 | 176 | 4.0 | 0.0 | 0.00 | 0.00 | 0.00 | 80 | 1011.0 |
| 20260905134004 | 80 | 73 | 13.0 | 0.0 | 0.00 | 0.00 | 0.00 | 82 | 1011.0 |
| 20260905133505 | 80 | 109 | 4.0 | 0.0 | 0.00 | 0.00 | 0.00 | 83 | 1010.6 |
| 20260905133005 | 80 | 11 | 4.0 | 0.0 | 0.00 | 0.00 | 0.00 | 83 | 1010.6 |
| 20260905132505 | 79 | 26 | 4.0 | 0.0 | 0.00 | 0.00 | 0.00 | 84 | 1010.6 |
| 20260905132005 | 79 | 103 | 13.0 | 0.0 | 0.00 | 0.00 | 0.00 | 84 | 1010.6 |
| 20260905131505 | 79 | 73 | 13.0 | 0.0 | 0.00 | 0.00 | 0.00 | 85 | 1010.6 |
| 20260905131005 | 78 | 100 | 0.0 | 0.0 | 0.00 | 0.00 | 0.00 | 86 | 1010.6 |
| 20260905130505 | 78 | 67 | 4.0 | 0.0 | 0.00 | 0.00 | 0.00 | 86 | 1010.3 |
| 20260905130004 | 78 | 82 | 0.0 | 0.0 | 0.00 | 0.00 | 0.00 | 87 | 1010.3 |
| 20260905125505 | 78 | 136 | 0.0 | 0.0 | 0.00 | 0.00 | 0.00 | 87 | 1010.3 |
| 20260905125005 | 77 | 82 | 4.0 | 0.0 | 0.00 | 0.00 | 0.00 | 88 | 1010.3 |
| 20260905124505 | 77 | 134 | 0.0 | 0.0 | 0.00 | 0.00 | 0.00 | 88 | 1010.3 |
| 20260905124005 | 77 | 117 | 0.0 | 0.0 | 0.00 | 0.00 | 0.00 | 88 | 1009.9 |
| 20260905123505 | 77 | 70 | 4.0 | 0.0 | 0.00 | 0.00 | 0.00 | 88 | 1009.9 |
| 20260905123212 | 77 | 128 | 0.0 | 0.0 | 0.00 | 0.00 | 0.00 | 88 | 1009.9 |
| 20260905122504 | 77 | 121 | 0.0 | 0.0 | 0.00 | 0.00 | 0.00 | 88 | 1009.9 |
| 20260905122005 | 77 | 154 | 0.0 | 0.0 | 0.00 | 0.00 | 0.00 | 88 | 1009.9 |
| 20260905121505 | 77 | 100 | 4.0 | 0.0 | 0.00 | 0.00 | 0.00 | 88 | 1009.6 |
| 20260905121005 | 77 | 99 | 0.0 | 0.0 | 0.00 | 0.00 | 0.00 | 88 | 1009.6 |
| 20260905120711 | 77 | 107 | 4.0 | 0.0 | 0.00 | 0.00 | 0.00 | 88 | 1009.9 |
| 20260905120005 | 77 | 124 | 0.0 | 0.0 | 0.00 | 0.00 | 0.00 | 88 | 1009.6 |
| 20260905115505 | 77 | 101 | 0.0 | 0.0 | 0.00 | 0.00 | 0.00 | 88 | 1009.6 |
| 20260905115005 | 77 | 94 | 0.0 | 0.0 | 0.00 | 0.00 | 0.00 | 87 | 1009.3 |
| 20260905114713 | 77 | 127 | 0.0 | 0.0 | 0.00 | 0.00 | 0.00 | 87 | 1009.6 |
| 20260905114005 | 77 | 79 | 4.0 | 0.0 | 0.00 | 0.00 | 0.00 | 87 | 1009.3 |
| 20260905113505 | 77 | 126 | 0.0 | 0.0 | 0.00 | 0.00 | 0.00 | 87 | 1009.6 |
| 20260905113005 | 78 | 106 | 0.0 | 0.0 | 0.00 | 0.00 | 0.00 | 87 | 1009.6 |
| 20260905112504 | 78 | 132 | 0.0 | 0.0 | 0.00 | 0.00 | 0.00 | 86 | 1009.6 |
| 20260905112005 | 78 | 93 | 0.0 | 0.0 | 0.00 | 0.00 | 0.00 | 86 | 1009.3 |
| 20260905111505 | 78 | 135 | 0.0 | 0.0 | 0.00 | 0.00 | 0.00 | 86 | 1009.6 |
| 20260905111005 | 78 | 68 | 4.0 | 0.0 | 0.00 | 0.00 | 0.00 | 86 | 1009.6 |
| 20260905110505 | 78 | 99 | 0.0 | 0.0 | 0.00 | 0.00 | 0.00 | 86 | 1009.6 |
| 20260905110005 | 78 | 86 | 4.0 | 0.0 | 0.00 | 0.00 | 0.00 | 85 | 1009.3 |
| 20260905105505 | 78 | 51 | 4.0 | 0.0 | 0.00 | 0.00 | 0.00 | 85 | 1009.6 |
| 20260905105005 | 78 | 129 | 0.0 | 0.0 | 0.00 | 0.00 | 0.00 | 85 | 1009.3 |
| 20260905104712 | 78 | 132 | 0.0 | 0.0 | 0.00 | 0.00 | 0.00 | 85 | 1009.3 |
| 20260905104212 | 78 | 83 | 4.0 | 0.0 | 0.00 | 0.00 | 0.00 | 85 | 1009.6 |
| 20260905103505 | 78 | 121 | 0.0 | 0.0 | 0.00 | 0.00 | 0.00 | 85 | 1009.6 |
| 20260905103005 | 78 | 115 | 0.0 | 0.0 | 0.00 | 0.00 | 0.00 | 85 | 1009.6 |
| 20260905102505 | 78 | 104 | 0.0 | 0.0 | 0.00 | 0.00 | 0.00 | 85 | 1009.6 |
| 20260905102005 | 79 | 108 | 0.0 | 0.0 | 0.00 | 0.00 | 0.00 | 85 | 1009.3 |
| 20260905101505 | 79 | 96 | 0.0 | 0.0 | 0.00 | 0.00 | 0.00 | 85 | 1009.6 |
| 20260905101211 | 79 | 116 | 0.0 | 0.0 | 0.00 | 0.00 | 0.00 | 85 | 1009.6 |
| 20260905100505 | 79 | 126 | 4.0 | 0.0 | 0.00 | 0.00 | 0.00 | 85 | 1009.6 |
| 20260905100005 | 79 | 112 | 4.0 | 0.0 | 0.00 | 0.00 | 0.00 | 85 | 1009.6 |
| 20260905095505 | 79 | 108 | 0.0 | 0.0 | 0.00 | 0.00 | 0.00 | 85 | 1009.6 |
| 20260905095005 | 79 | 141 | 0.0 | 0.0 | 0.00 | 0.00 | 0.00 | 84 | 1009.9 |
| 20260905094505 | 79 | 114 | 0.0 | 0.0 | 0.00 | 0.00 | 0.00 | 84 | 1009.6 |
| 20260905094005 | 79 | 108 | 0.0 | 0.0 | 0.00 | 0.00 | 0.00 | 84 | 1009.9 |
| 20260905093505 | 79 | 128 | 0.0 | 0.0 | 0.00 | 0.00 | 0.00 | 84 | 1009.6 |
| 20260905093004 | 79 | 65 | 0.0 | 0.0 | 0.00 | 0.00 | 0.00 | 85 | 1009.6 |
| 20260905092505 | 79 | 97 | 4.0 | 0.0 | 0.00 | 0.00 | 0.00 | 84 | 1009.6 |
| 20260905092005 | 79 | 96 | 0.0 | 0.0 | 0.00 | 0.00 | 0.00 | 84 | 1009.9 |
| 20260905091712 | 79 | 168 | 0.0 | 0.0 | 0.00 | 0.00 | 0.00 | 84 | 1009.6 |
| 20260905091213 | 79 | 152 | 4.0 | 0.0 | 0.00 | 0.00 | 0.00 | 84 | 1009.6 |
| 20260905090505 | 79 | 138 | 0.0 | 0.0 | 0.00 | 0.00 | 0.00 | 84 | 1009.9 |
| 20260905090005 | 79 | 141 | 4.0 | 0.0 | 0.00 | 0.00 | 0.00 | 84 | 1009.6 |
| 20260905085505 | 79 | 72 | 4.0 | 0.0 | 0.00 | 0.00 | 0.00 | 85 | 1009.6 |
| 20260905085005 | 79 | 112 | 0.0 | 0.0 | 0.00 | 0.00 | 0.00 | 85 | 1009.9 |
| 20260905084712 | 79 | 95 | 4.0 | 0.0 | 0.00 | 0.00 | 0.00 | 85 | 1009.9 |
| 20260905084005 | 79 | 115 | 0.0 | 0.0 | 0.00 | 0.00 | 0.00 | 85 | 1009.9 |
| 20260905083505 | 79 | 103 | 0.0 | 0.0 | 0.00 | 0.00 | 0.00 | 85 | 1009.9 |
| 20260905083005 | 79 | 162 | 0.0 | 0.0 | 0.00 | 0.00 | 0.00 | 85 | 1009.9 |
| 20260905082505 | 79 | 117 | 0.0 | 0.0 | 0.00 | 0.00 | 0.00 | 85 | 1009.9 |
| 20260905082005 | 79 | 130 | 0.0 | 0.0 | 0.00 | 0.00 | 0.00 | 85 | 1009.9 |
| 20260905081711 | 79 | 118 | 4.0 | 0.0 | 0.00 | 0.00 | 0.00 | 84 | 1009.9 |
| 20260905081005 | 80 | 99 | 0.0 | 0.0 | 0.00 | 0.00 | 0.00 | 84 | 1009.9 |
| 20260905080505 | 80 | 78 | 4.0 | 0.0 | 0.00 | 0.00 | 0.00 | 84 | 1010.3 |
| 20260905080005 | 80 | 35 | 4.0 | 0.0 | 0.00 | 0.00 | 0.00 | 84 | 1010.3 |
| 20260905075505 | 80 | 33 | 4.0 | 0.0 | 0.00 | 0.00 | 0.00 | 84 | 1009.9 |
| 20260905075212 | 80 | 128 | 9.0 | 0.0 | 0.00 | 0.00 | 0.00 | 84 | 1010.3 |
| 20260905074505 | 80 | 109 | 0.0 | 0.0 | 0.00 | 0.00 | 0.00 | 84 | 1010.3 |
| 20260905074005 | 80 | 131 | 0.0 | 0.0 | 0.00 | 0.00 | 0.00 | 84 | 1010.3 |
| 20260905073505 | 80 | 127 | 0.0 | 0.0 | 0.00 | 0.00 | 0.00 | 84 | 1010.3 |
| 20260905073005 | 80 | 99 | 0.0 | 0.0 | 0.00 | 0.00 | 0.00 | 84 | 1010.3 |
| 20260905072505 | 80 | 116 | 0.0 | 0.0 | 0.00 | 0.00 | 0.00 | 84 | 1010.3 |
| 20260905072212 | 80 | 123 | 0.0 | 0.0 | 0.00 | 0.00 | 0.00 | 83 | 1010.6 |
| 20260905071505 | 80 | 83 | 4.0 | 0.0 | 0.00 | 0.00 | 0.00 | 83 | 1010.6 |
| 20260905071005 | 80 | 108 | 4.0 | 0.0 | 0.00 | 0.00 | 0.00 | 83 | 1010.6 |
| 20260905070711 | 80 | 110 | 4.0 | 0.0 | 0.00 | 0.00 | 0.00 | 83 | 1010.6 |
| 20260905070005 | 80 | 130 | 0.0 | 0.0 | 0.00 | 0.00 | 0.00 | 83 | 1010.6 |
| 20260905065713 | 80 | 41 | 13.0 | 0.0 | 0.00 | 0.00 | 0.00 | 83 | 1010.6 |
| 20260905065005 | 80 | 109 | 0.0 | 0.0 | 0.00 | 0.00 | 0.00 | 82 | 1010.6 |
| 20260905064713 | 80 | 48 | 9.0 | 0.0 | 0.00 | 0.00 | 0.00 | 82 | 1010.6 |
| 20260905064005 | 80 | 78 | 4.0 | 0.0 | 0.00 | 0.00 | 0.00 | 82 | 1010.6 |
| 20260905063713 | 80 | 111 | 0.0 | 0.0 | 0.00 | 0.00 | 0.00 | 82 | 1011.0 |
| 20260905063005 | 80 | 85 | 9.0 | 0.0 | 0.00 | 0.00 | 0.00 | 82 | 1010.6 |
| 20260905062505 | 80 | 91 | 0.0 | 0.0 | 0.00 | 0.00 | 0.00 | 82 | 1010.6 |
| 20260905062005 | 80 | 134 | 0.0 | 0.0 | 0.00 | 0.00 | 0.00 | 82 | 1010.6 |
| 20260905061504 | 80 | 120 | 13.0 | 0.0 | 0.00 | 0.00 | 0.00 | 82 | 1010.6 |
| 20260905061005 | 80 | 73 | 4.0 | 0.0 | 0.00 | 0.00 | 0.00 | 82 | 1010.6 |
| 20260905060505 | 80 | 86 | 4.0 | 0.0 | 0.00 | 0.00 | 0.00 | 82 | 1010.6 |
| 20260905060212 | 80 | 106 | 0.0 | 0.0 | 0.00 | 0.00 | 0.00 | 81 | 1010.6 |
| 20260905055505 | 80 | 103 | 0.0 | 0.0 | 0.00 | 0.00 | 0.00 | 81 | 1010.3 |
| 20260905055005 | 80 | 150 | 4.0 | 0.0 | 0.00 | 0.00 | 0.00 | 81 | 1010.6 |
| 20260905054505 | 80 | 141 | 0.0 | 0.0 | 0.00 | 0.00 | 0.00 | 81 | 1010.6 |
| 20260905054005 | 80 | 137 | 0.0 | 0.0 | 0.00 | 0.00 | 0.00 | 80 | 1010.6 |
| 20260905053505 | 80 | 129 | 9.0 | 0.0 | 0.00 | 0.00 | 0.00 | 80 | 1010.6 |
| 20260905053005 | 80 | 64 | 4.0 | 0.0 | 0.00 | 0.00 | 0.00 | 80 | 1010.6 |
| 20260905052505 | 80 | 104 | 9.0 | 0.0 | 0.00 | 0.00 | 0.00 | 80 | 1010.6 |
| 20260905052005 | 80 | 21 | 4.0 | 0.0 | 0.00 | 0.00 | 0.00 | 80 | 1010.6 |
| 20260905051505 | 80 | 97 | 9.0 | 0.0 | 0.00 | 0.00 | 0.00 | 80 | 1010.6 |
| 20260905051005 | 80 | 44 | 4.0 | 0.0 | 0.00 | 0.00 | 0.00 | 80 | 1010.6 |
| 20260905050505 | 80 | 131 | 13.0 | 0.0 | 0.00 | 0.00 | 0.00 | 80 | 1011.0 |
| 20260905045505 | 80 | 28 | 9.0 | 0.0 | 0.00 | 0.00 | 0.00 | 79 | 1010.6 |
| 20260905045005 | 80 | 142 | 0.0 | 0.0 | 0.00 | 0.00 | 0.00 | 79 | 1010.3 |
| 20260905044505 | 80 | 48 | 9.0 | 0.0 | 0.00 | 0.00 | 0.00 | 79 | 1010.3 |
| 20260905044005 | 80 | 38 | 9.0 | 0.0 | 0.00 | 0.00 | 0.00 | 79 | 1010.3 |
| 20260905043505 | 80 | 144 | 13.0 | 0.0 | 0.00 | 0.00 | 0.00 | 79 | 1010.6 |
| 20260905043213 | 80 | 128 | 0.0 | 0.0 | 0.00 | 0.00 | 0.00 | 78 | 1010.6 |
| 20260905042504 | 80 | 59 | 13.0 | 0.0 | 0.00 | 0.00 | 0.00 | 78 | 1010.6 |
| 20260905042005 | 80 | 98 | 4.0 | 0.0 | 0.00 | 0.00 | 0.00 | 78 | 1010.6 |
| 20260905041505 | 80 | 72 | 18.0 | 0.0 | 0.00 | 0.00 | 0.00 | 77 | 1011.0 |
| 20260905041005 | 81 | 334 | 18.0 | 0.0 | 0.00 | 0.00 | 0.00 | 77 | 1011.0 |
| 20260905040505 | 81 | 122 | 4.0 | 0.0 | 0.00 | 0.00 | 0.00 | 77 | 1010.6 |
| 20260905040213 | 81 | 109 | 4.0 | 0.0 | 0.00 | 0.00 | 0.00 | 77 | 1011.0 |
| 20260905035712 | 81 | 46 | 13.0 | 0.0 | 0.00 | 0.00 | 0.00 | 76 | 1010.6 |
| 20260905035005 | 81 | 77 | 18.0 | 0.0 | 0.00 | 0.00 | 0.00 | 76 | 1011.3 |
| 20260905034712 | 81 | 134 | 9.0 | 0.0 | 0.00 | 0.00 | 0.00 | 75 | 1011.0 |
| 20260905034005 | 81 | 51 | 4.0 | 0.0 | 0.00 | 0.00 | 0.00 | 75 | 1011.0 |
| 20260905033505 | 81 | 111 | 4.0 | 0.0 | 0.00 | 0.00 | 0.00 | 75 | 1011.0 |
| 20260905033211 | 81 | 142 | 13.0 | 0.0 | 0.00 | 0.00 | 0.00 | 74 | 1011.0 |
| 20260905032505 | 81 | 57 | 9.0 | 0.0 | 0.00 | 0.00 | 0.00 | 74 | 1010.6 |
| 20260905032213 | 81 | 11 | 9.0 | 0.0 | 0.00 | 0.00 | 0.00 | 74 | 1011.0 |
| 20260905031505 | 81 | 154 | 23.0 | 0.0 | 0.00 | 0.00 | 0.00 | 74 | 1010.6 |
| 20260905031005 | 81 | 82 | 9.0 | 0.0 | 0.00 | 0.00 | 0.00 | 73 | 1010.6 |
| 20260905030505 | 81 | 113 | 4.0 | 0.0 | 0.00 | 0.00 | 0.00 | 73 | 1010.6 |
| 20260905030005 | 81 | 65 | 9.0 | 0.0 | 0.00 | 0.00 | 0.00 | 73 | 1010.6 |
| 20260905025504 | 82 | 37 | 4.0 | 0.0 | 0.00 | 0.00 | 0.00 | 72 | 1010.6 |
| 20260905025005 | 82 | 76 | 9.0 | 0.0 | 0.00 | 0.00 | 0.00 | 72 | 1010.3 |
| 20260905024712 | 82 | 57 | 23.0 | 0.0 | 0.00 | 0.00 | 0.00 | 72 | 1010.3 |
| 20260905024005 | 82 | 159 | 13.0 | 0.0 | 0.00 | 0.00 | 0.00 | 71 | 1010.3 |
| 20260905023505 | 82 | 71 | 4.0 | 0.0 | 0.00 | 0.00 | 0.00 | 71 | 1010.3 |
| 20260905023005 | 82 | 72 | 18.0 | 0.0 | 0.00 | 0.00 | 0.00 | 70 | 1010.6 |
| 20260905022505 | 82 | 85 | 4.0 | 0.0 | 0.00 | 0.00 | 0.00 | 70 | 1010.3 |
| 20260905022005 | 82 | 96 | 4.0 | 0.0 | 0.00 | 0.00 | 0.00 | 69 | 1009.9 |
| 20260905021505 | 82 | 51 | 4.0 | 0.0 | 0.00 | 0.00 | 0.00 | 69 | 1009.6 |
| 20260905021212 | 83 | 67 | 18.0 | 0.0 | 0.00 | 0.00 | 0.00 | 69 | 1009.6 |
| 20260905020504 | 83 | 105 | 4.0 | 0.0 | 0.00 | 0.00 | 0.00 | 68 | 1009.6 |
| 20260905020005 | 83 | 86 | 13.0 | 0.0 | 0.00 | 0.00 | 0.00 | 68 | 1009.6 |
| 20260905015505 | 83 | 49 | 9.0 | 0.0 | 0.00 | 0.00 | 0.00 | 68 | 1009.6 |
| 20260905015005 | 83 | 77 | 18.0 | 0.0 | 0.00 | 0.00 | 0.00 | 67 | 1009.3 |
| 20260905014505 | 83 | 102 | 13.0 | 0.0 | 0.00 | 0.00 | 0.00 | 67 | 1009.3 |
| 20260905014212 | 83 | 333 | 13.0 | 0.0 | 0.00 | 0.00 | 0.00 | 66 | 1009.3 |
| 20260905013505 | 83 | 107 | 13.0 | 0.0 | 0.00 | 0.00 | 0.00 | 66 | 1009.6 |
| 20260905013005 | 83 | 64 | 18.0 | 0.0 | 0.00 | 0.00 | 0.00 | 65 | 1009.6 |
| 20260905012505 | 83 | 98 | 4.0 | 0.0 | 0.00 | 0.00 | 0.00 | 65 | 1009.3 |
| 20260905012212 | 83 | 49 | 27.0 | 0.0 | 0.00 | 0.00 | 0.00 | 65 | 1009.3 |
| 20260905011505 | 83 | 101 | 18.0 | 0.0 | 0.00 | 0.00 | 0.00 | 65 | 1008.9 |
| 20260905011004 | 83 | 137 | 9.0 | 0.0 | 0.00 | 0.00 | 0.00 | 64 | 1009.3 |
| 20260905010505 | 83 | 85 | 18.0 | 0.0 | 0.00 | 0.00 | 0.00 | 64 | 1008.9 |
| 20260905010005 | 84 | 82 | 9.0 | 0.0 | 0.00 | 0.00 | 0.00 | 64 | 1008.9 |
| 20260905005713 | 84 | 11 | 27.0 | 0.0 | 0.00 | 0.00 | 0.00 | 63 | 1008.9 |
| 20260905005005 | 84 | 53 | 9.0 | 0.0 | 0.00 | 0.00 | 0.00 | 63 | 1008.9 |
| 20260905004505 | 85 | 67 | 32.0 | 0.0 | 0.00 | 0.00 | 0.00 | 63 | 1008.9 |
| 20260905004005 | 85 | 80 | 23.0 | 0.0 | 0.00 | 0.00 | 0.00 | 62 | 1008.9 |
| 20260905003505 | 85 | 56 | 27.0 | 0.0 | 0.00 | 0.00 | 0.00 | 61 | 1008.6 |
| 20260905003005 | 86 | 39 | 13.0 | 0.0 | 0.00 | 0.00 | 0.00 | 60 | 1008.6 |
| 20260905002713 | 86 | 84 | 23.0 | 0.0 | 0.00 | 0.00 | 0.00 | 59 | 1008.6 |
| 20260905002212 | 86 | 85 | 32.0 | 0.0 | 0.00 | 0.00 | 0.00 | 58 | 1008.6 |
| 20260905001505 | 86 | 187 | 9.0 | 0.0 | 0.00 | 0.00 | 0.00 | 57 | 1008.6 |
| 20260905001005 | 86 | 100 | 23.0 | 0.0 | 0.00 | 0.00 | 0.00 | 57 | 1008.6 |
| 20260905000505 | 87 | 115 | 9.0 | 0.0 | 0.00 | 0.00 | 0.00 | 55 | 1008.2 |
| 20260905000005 | 88 | 309 | 9.0 | 0.0 | 0.00 | 0.00 | 0.00 | 54 | 1008.2 |
| 20260904235504 | 88 | 168 | 18.0 | 0.0 | 0.00 | 0.00 | 0.00 | 53 | 1008.2 |
| 20260904235005 | 88 | 79 | 27.0 | 0.0 | 0.00 | 0.00 | 0.00 | 51 | 1007.9 |
| 20260904234505 | 89 | 84 | 4.0 | 0.0 | 0.00 | 0.00 | 0.00 | 50 | 1007.9 |
| 20260904234005 | 89 | 103 | 27.0 | 0.0 | 0.00 | 0.00 | 0.00 | 49 | 1007.9 |
| 20260904233505 | 89 | 57 | 4.0 | 0.0 | 0.00 | 0.00 | 0.00 | 49 | 1007.9 |
| 20260904233005 | 89 | 80 | 13.0 | 0.0 | 0.00 | 0.00 | 0.00 | 48 | 1007.9 |
| 20260904232712 | 89 | 156 | 18.0 | 0.0 | 0.00 | 0.00 | 0.00 | 47 | 1007.9 |
| 20260904232211 | 89 | 158 | 9.0 | 0.0 | 0.00 | 0.00 | 0.00 | 46 | 1007.9 |
| 20260904231505 | 90 | 76 | 13.0 | 0.0 | 0.00 | 0.00 | 0.00 | 46 | 1007.9 |
| 20260904231005 | 90 | 45 | 23.0 | 0.0 | 0.00 | 0.00 | 0.00 | 46 | 1007.9 |
| 20260904230505 | 90 | 239 | 9.0 | 0.0 | 0.00 | 0.00 | 0.00 | 45 | 1007.9 |
| 20260904230005 | 90 | 45 | 18.0 | 0.0 | 0.00 | 0.00 | 0.00 | 45 | 1007.6 |
| 20260904225505 | 90 | 144 | 13.0 | 0.0 | 0.00 | 0.00 | 0.00 | 44 | 1007.6 |
| 20260904225005 | 91 | 105 | 9.0 | 0.0 | 0.00 | 0.00 | 0.00 | 45 | 1007.6 |
| 20260904224505 | 91 | 72 | 18.0 | 0.0 | 0.00 | 0.00 | 0.00 | 43 | 1007.9 |
| 20260904224005 | 92 | 80 | 23.0 | 0.0 | 0.00 | 0.00 | 0.00 | 42 | 1007.9 |
| 20260904223505 | 92 | 67 | 23.0 | 0.0 | 0.00 | 0.00 | 0.00 | 42 | 1007.6 |
| 20260904223005 | 92 | 73 | 13.0 | 0.0 | 0.00 | 0.00 | 0.00 | 41 | 1007.6 |
| 20260904222505 | 92 | 86 | 13.0 | 0.0 | 0.00 | 0.00 | 0.00 | 41 | 1007.9 |
| 20260904222005 | 92 | 113 | 13.0 | 0.0 | 0.00 | 0.00 | 0.00 | 41 | 1007.6 |
| 20260904221505 | 92 | 121 | 13.0 | 0.0 | 0.00 | 0.00 | 0.00 | 40 | 1007.6 |
| 20260904221005 | 92 | 98 | 13.0 | 0.0 | 0.00 | 0.00 | 0.00 | 40 | 1007.6 |
| 20260904220505 | 91 | 140 | 9.0 | 0.0 | 0.00 | 0.00 | 0.00 | 42 | 1007.6 |
| 20260904220005 | 92 | 7 | 23.0 | 0.0 | 0.00 | 0.00 | 0.00 | 42 | 1007.6 |
| 20260904215505 | 92 | 148 | 23.0 | 0.0 | 0.00 | 0.00 | 0.00 | 41 | 1007.6 |
| 20260904215005 | 93 | 63 | 13.0 | 0.0 | 0.00 | 0.00 | 0.00 | 38 | 1007.6 |
| 20260904214505 | 94 | 190 | 0.0 | 0.0 | 0.00 | 0.00 | 0.00 | 37 | 1007.6 |
| 20260904214005 | 92 | 23 | 18.0 | 0.0 | 0.00 | 0.00 | 0.00 | 39 | 1007.6 |
| 20260904213505 | 92 | 149 | 4.0 | 0.0 | 0.00 | 0.00 | 0.00 | 40 | 1007.6 |
| 20260904213005 | 94 | 102 | 13.0 | 0.0 | 0.00 | 0.00 | 0.00 | 38 | 1007.6 |
| 20260904212505 | 94 | 92 | 23.0 | 0.0 | 0.00 | 0.00 | 0.00 | 37 | 1007.6 |
| 20260904212005 | 94 | 162 | 4.0 | 0.0 | 0.00 | 0.00 | 0.00 | 38 | 1007.6 |
| 20260904211505 | 93 | 139 | 18.0 | 0.0 | 0.00 | 0.00 | 0.00 | 39 | 1007.6 |
| 20260904211212 | 94 | 74 | 4.0 | 0.0 | 0.00 | 0.00 | 0.00 | 37 | 1007.6 |
| 20260904210505 | 94 | 77 | 4.0 | 0.0 | 0.00 | 0.00 | 0.00 | 36 | 1007.9 |
| 20260904210005 | 94 | 122 | 13.0 | 0.0 | 0.00 | 0.00 | 0.00 | 36 | 1007.6 |
| 20260904205504 | 93 | 150 | 9.0 | 0.0 | 0.00 | 0.00 | 0.00 | 36 | 1007.9 |
| 20260904205005 | 93 | 75 | 9.0 | 0.0 | 0.00 | 0.00 | 0.00 | 36 | 1007.9 |
| 20260904204505 | 93 | 174 | 32.0 | 0.0 | 0.00 | 0.00 | 0.00 | 35 | 1007.9 |
| 20260904204005 | 93 | 101 | 9.0 | 0.0 | 0.00 | 0.00 | 0.00 | 35 | 1007.9 |
| 20260904203505 | 93 | 69 | 4.0 | 0.0 | 0.00 | 0.00 | 0.00 | 35 | 1007.9 |
| 20260904203212 | 93 | 124 | 9.0 | 0.0 | 0.00 | 0.00 | 0.00 | 36 | 1007.9 |
| 20260904202505 | 93 | 165 | 4.0 | 0.0 | 0.00 | 0.00 | 0.00 | 36 | 1007.9 |
| 20260904202005 | 93 | 150 | 32.0 | 0.0 | 0.00 | 0.00 | 0.00 | 36 | 1008.2 |
| 20260904201711 | 93 | 96 | 4.0 | 0.0 | 0.00 | 0.00 | 0.00 | 36 | 1008.2 |
| 20260904201005 | 93 | 68 | 4.0 | 0.0 | 0.00 | 0.00 | 0.00 | 37 | 1007.9 |
| 20260904200505 | 94 | 120 | 0.0 | 0.0 | 0.00 | 0.00 | 0.00 | 36 | 1008.2 |
| 20260904200005 | 94 | 175 | 9.0 | 0.0 | 0.00 | 0.00 | 0.00 | 35 | 1008.2 |
| 20260904195505 | 94 | 158 | 9.0 | 0.0 | 0.00 | 0.00 | 0.00 | 34 | 1008.2 |
| 20260904195005 | 93 | 108 | 13.0 | 0.0 | 0.00 | 0.00 | 0.00 | 34 | 1008.6 |
| 20260904194504 | 92 | 113 | 13.0 | 0.0 | 0.00 | 0.00 | 0.00 | 37 | 1008.6 |
| 20260904194005 | 92 | 162 | 4.0 | 0.0 | 0.00 | 0.00 | 0.00 | 39 | 1008.6 |
| 20260904193505 | 92 | 62 | 4.0 | 0.0 | 0.00 | 0.00 | 0.00 | 38 | 1008.6 |
| 20260904193212 | 93 | 166 | 4.0 | 0.0 | 0.00 | 0.00 | 0.00 | 41 | 1008.6 |
| 20260904192713 | 93 | 30 | 9.0 | 0.0 | 0.00 | 0.00 | 0.00 | 37 | 1008.9 |
| 20260904192005 | 94 | 127 | 9.0 | 0.0 | 0.00 | 0.00 | 0.00 | 36 | 1008.9 |
| 20260904191505 | 93 | 178 | 9.0 | 0.0 | 0.00 | 0.00 | 0.00 | 39 | 1008.9 |
| 20260904191005 | 93 | 69 | 18.0 | 0.0 | 0.00 | 0.00 | 0.00 | 40 | 1008.9 |
| 20260904190505 | 93 | 111 | 4.0 | 0.0 | 0.00 | 0.00 | 0.00 | 41 | 1008.9 |
| 20260904190005 | 93 | 40 | 4.0 | 0.0 | 0.00 | 0.00 | 0.00 | 40 | 1008.9 |
| 20260904185504 | 92 | 169 | 27.0 | 0.0 | 0.00 | 0.00 | 0.00 | 41 | 1008.9 |
| 20260904185005 | 92 | 151 | 4.0 | 0.0 | 0.00 | 0.00 | 0.00 | 43 | 1009.3 |
| 20260904184713 | 91 | 44 | 9.0 | 0.0 | 0.00 | 0.00 | 0.00 | 44 | 1009.3 |
| 20260904184005 | 91 | 37 | 9.0 | 0.0 | 0.00 | 0.00 | 0.00 | 44 | 1009.3 |
| 20260904183505 | 92 | 39 | 4.0 | 0.0 | 0.00 | 0.00 | 0.00 | 44 | 1009.3 |
| 20260904183212 | 92 | 139 | 9.0 | 0.0 | 0.00 | 0.00 | 0.00 | 41 | 1009.6 |
| 20260904182505 | 92 | 93 | 4.0 | 0.0 | 0.00 | 0.00 | 0.00 | 41 | 1009.6 |
| 20260904182005 | 92 | 153 | 9.0 | 0.0 | 0.00 | 0.00 | 0.00 | 41 | 1009.3 |
| 20260904181505 | 92 | 118 | 18.0 | 0.0 | 0.00 | 0.00 | 0.00 | 42 | 1009.6 |
| 20260904181005 | 92 | 48 | 23.0 | 0.0 | 0.00 | 0.00 | 0.00 | 42 | 1009.9 |
| 20260904180505 | 92 | 42 | 13.0 | 0.0 | 0.00 | 0.00 | 0.00 | 42 | 1009.9 |
| 20260904180005 | 92 | 130 | 0.0 | 0.0 | 0.00 | 0.00 | 0.00 | 43 | 1009.6 |
| 20260904175505 | 92 | 122 | 9.0 | 0.0 | 0.00 | 0.00 | 0.00 | 42 | 1009.9 |
| 20260904175213 | 92 | 118 | 4.0 | 0.0 | 0.00 | 0.00 | 0.00 | 43 | 1009.9 |
| 20260904174505 | 91 | 40 | 4.0 | 0.0 | 0.00 | 0.00 | 0.00 | 44 | 1009.9 |
| 20260904174005 | 91 | 84 | 9.0 | 0.0 | 0.00 | 0.00 | 0.00 | 44 | 1010.3 |
| 20260904173505 | 90 | 183 | 13.0 | 0.0 | 0.00 | 0.00 | 0.00 | 46 | 1010.3 |
| 20260904173004 | 90 | 71 | 13.0 | 0.0 | 0.00 | 0.00 | 0.00 | 47 | 1010.3 |
| 20260904172505 | 91 | 174 | 13.0 | 0.0 | 0.00 | 0.00 | 0.00 | 43 | 1010.6 |
| 20260904172005 | 90 | 177 | 9.0 | 0.0 | 0.00 | 0.00 | 0.00 | 46 | 1010.3 |
| 20260904171505 | 89 | 85 | 13.0 | 0.0 | 0.00 | 0.00 | 0.00 | 48 | 1010.3 |
| 20260904171005 | 89 | 148 | 4.0 | 0.0 | 0.00 | 0.00 | 0.00 | 48 | 1010.3 |
| 20260904170505 | 90 | 179 | 13.0 | 0.0 | 0.00 | 0.00 | 0.00 | 47 | 1010.6 |
| 20260904170005 | 89 | 125 | 4.0 | 0.0 | 0.00 | 0.00 | 0.00 | 49 | 1010.6 |
| 20260904165505 | 89 | 99 | 13.0 | 0.0 | 0.00 | 0.00 | 0.00 | 50 | 1010.6 |
| 20260904165005 | 89 | 149 | 18.0 | 0.0 | 0.00 | 0.00 | 0.00 | 49 | 1010.6 |
| 20260904164505 | 89 | 119 | 18.0 | 0.0 | 0.00 | 0.00 | 0.00 | 51 | 1010.6 |
| 20260904164005 | 88 | 172 | 27.0 | 0.0 | 0.00 | 0.00 | 0.00 | 52 | 1010.6 |
| 20260904163505 | 89 | 21 | 13.0 | 0.0 | 0.00 | 0.00 | 0.00 | 50 | 1011.0 |
| 20260904163005 | 89 | 32 | 9.0 | 0.0 | 0.00 | 0.00 | 0.00 | 50 | 1011.0 |
| 20260904162505 | 89 | 177 | 13.0 | 0.0 | 0.00 | 0.00 | 0.00 | 52 | 1010.6 |
| 20260904162005 | 88 | 128 | 4.0 | 0.0 | 0.00 | 0.00 | 0.00 | 54 | 1010.6 |
| 20260904161505 | 89 | 22 | 13.0 | 0.0 | 0.00 | 0.00 | 0.00 | 54 | 1010.6 |
| 20260904161005 | 88 | 173 | 4.0 | 0.0 | 0.00 | 0.00 | 0.00 | 55 | 1011.0 |
| 20260904160505 | 87 | 187 | 9.0 | 0.0 | 0.00 | 0.00 | 0.00 | 56 | 1010.6 |
| 20260904160005 | 86 | 58 | 13.0 | 0.0 | 0.00 | 0.00 | 0.00 | 58 | 1011.0 |
| 20260904155505 | 86 | 60 | 9.0 | 0.0 | 0.00 | 0.00 | 0.00 | 58 | 1010.6 |
| 20260904155005 | 86 | 138 | 18.0 | 0.0 | 0.00 | 0.00 | 0.00 | 58 | 1010.6 |
| 20260904154713 | 86 | 119 | 9.0 | 0.0 | 0.00 | 0.00 | 0.00 | 59 | 1010.6 |
| 20260904154212 | 87 | 40 | 13.0 | 0.0 | 0.00 | 0.00 | 0.00 | 56 | 1010.6 |
| 20260904153505 | 86 | 105 | 9.0 | 0.0 | 0.00 | 0.00 | 0.00 | 59 | 1011.0 |
| 20260904153005 | 86 | 64 | 13.0 | 0.0 | 0.00 | 0.00 | 0.00 | 61 | 1011.0 |
| 20260904152713 | 85 | 99 | 23.0 | 0.0 | 0.00 | 0.00 | 0.00 | 61 | 1011.0 |
| 20260904152005 | 85 | 29 | 18.0 | 0.0 | 0.00 | 0.00 | 0.00 | 64 | 1011.0 |
| 20260904151711 | 84 | 110 | 13.0 | 0.0 | 0.00 | 0.00 | 0.00 | 64 | 1011.0 |
| 20260904151005 | 84 | 64 | 13.0 | 0.0 | 0.00 | 0.00 | 0.00 | 67 | 1011.0 |
| 20260904150505 | 84 | 96 | 9.0 | 0.0 | 0.00 | 0.00 | 0.00 | 66 | 1011.0 |
| 20260904150005 | 84 | 111 | 13.0 | 0.0 | 0.00 | 0.00 | 0.00 | 67 | 1010.6 |
| 20260904145713 | 83 | 114 | 27.0 | 0.0 | 0.00 | 0.00 | 0.00 | 68 | 1010.6 |
| 20260904145005 | 83 | 158 | 13.0 | 0.0 | 0.00 | 0.00 | 0.00 | 69 | 1010.6 |
| 20260904144505 | 83 | 175 | 9.0 | 0.0 | 0.00 | 0.00 | 0.00 | 71 | 1010.6 |